Home > Time Zones > World Clock > Weather > India > Surat > Past weeks

Flag for India Weather past 2 weeks in Surat, Gujarat, India

Now
81 °F

Passing clouds.


Feels Like: 85 °F
Forecast: 78 / 87 °F
Wind: 3 mph from West

Location: Ahmadabad Airport

Current Time: Sep 2, 2015 at 6:05:16 AM

Latest Report: Sep 2, 2015 at 5:40 AM


Visibility: 2 mi

Pressure: 29.71 "Hg

Humidity: 74%

Dew point: 72 °F

Location of SuratLocation

Historic Weather in Surat — Graph

°F

Surat temperature yesterday

Maximum temperature yesterday: 97 °F (at 2:40 PM)
Minimum temperature yesterday: 81 °F (at 2:10 AM)
Average temperature yesterday: 88 °F

Past Weeks' High & Low Weather Summary

 TemperatureHumidityPressure
High99 °F (Aug 29, 4:40 PM)94% (Aug 18, 6:10 PM)29.83 "Hg (Aug 18, 6:10 PM)
Low79 °F (Aug 18, 6:10 PM)44% (Aug 21, 4:40 PM)29.62 "Hg (Aug 26, 5:40 PM)
Average87 °F70%29.71 "Hg
* Reported Aug 18 4:40 AM — Sep 2 4:40 AM, Surat, Weather by CustomWeather, © 2015

Note: Actual official high and low records may vary slightly from our data, if they occured in-between our weather recording intervals... More about our weather records

Advertising

Surat weather history for previous 24 hours

 ConditionsComfort  
Time TempWeatherWind HumidityBarometerVisibility
4:40 AM
Wed, Sep 2
82 °FPassing clouds.5 mph70%29.71 "Hg2 mi
4:10 AM82 °FPassing clouds.6 mph70%29.68 "Hg2 mi
2:40 AM82 °FHaze.5 mph70%29.68 "Hg2 mi
2:10 AM82 °FFog.6 mph74%29.68 "Hg2 mi
1:40 AM82 °FFog.8 mph79%29.68 "Hg2 mi
1:10 AM82 °FFog.5 mph79%29.68 "Hg2 mi
12:40 AM84 °FHaze.6 mph79%29.71 "Hg2 mi
12:10 AM84 °FHaze.7 mph79%29.71 "Hg2 mi
11:40 PM
Tue, Sep 1
84 °FHaze.8 mph79%29.71 "Hg2 mi
11:10 PM84 °FHaze.10 mph79%29.71 "Hg2 mi
10:40 PM84 °FHaze.9 mph74%29.71 "Hg2 mi
10:10 PM86 °FPassing clouds.7 mph70%29.71 "Hg2 mi
9:40 PM86 °FPassing clouds.8 mph70%29.71 "Hg2 mi
9:10 PM86 °FHaze.7 mph66%29.71 "Hg2 mi
8:40 PM88 °FPassing clouds.9 mph66%29.71 "Hg2 mi
7:40 PM90 °FPassing clouds.5 mph63%29.68 "Hg2 mi
7:10 PM90 °FPassing clouds.3 mph63%29.65 "Hg2 mi
6:40 PM91 °FPassing clouds.5 mph59%29.65 "Hg3 mi
5:40 PM95 °FPassing clouds.9 mph47%29.65 "Hg4 mi
5:10 PM95 °FPassing clouds.5 mph50%29.65 "Hg4 mi
4:40 PM97 °FScattered clouds.7 mph44%29.62 "Hg4 mi
4:10 PM97 °FScattered clouds.7 mph47%29.65 "Hg4 mi
3:10 PM95 °FScattered clouds.14 mph47%29.65 "Hg4 mi
2:40 PM97 °FScattered clouds.13 mph47%29.68 "Hg4 mi
1:40 PM93 °FScattered clouds.9 mph53%29.71 "Hg4 mi
12:40 PM93 °FScattered clouds.8 mph53%29.71 "Hg2 mi
11:40 AM91 °FPartly sunny.6 mph56%29.74 "Hg2 mi
11:10 AM90 °FScattered clouds.9 mph59%29.74 "Hg2 mi
10:40 AM88 °FScattered clouds.7 mph62%29.74 "Hg2 mi
10:10 AM88 °FPartly sunny.12 mph66%29.74 "Hg2 mi
9:40 AM88 °FBroken clouds.7 mph66%29.74 "Hg2 mi
9:10 AM86 °FBroken clouds.9 mph66%29.74 "Hg2 mi
7:40 AM82 °FScattered clouds.9 mph79%29.74 "Hg2 mi
7:10 AM81 °FScattered clouds.8 mph79%29.71 "Hg2 mi
6:40 AM81 °FPassing clouds.8 mph79%29.71 "Hg2 mi
6:10 AM82 °FPassing clouds.7 mph79%29.71 "Hg2 mi
Weather by CustomWeather, © 2015

See weather overviewHow to use our weather pages